Location: Baix
(44.7118°N, 4.7648°E)
Time: 18:42:04
(UTC+00:00)

TIMED - Pass Details

Date: 07 August 2020
Orbit: 603 x 604 km, 74.1° (Epoch: 23 September)

Event Time Altitude Azimuth Distance (km) Brightness Sun altitude
Rises 02:30:44 0° 335° (NNW) 2,868 8.3 -18.5°
Reaches altitude 10° 02:32:59 10° 332° (NNW) 1,960 7.4 -18.2°
Maximum altitude 02:37:18 61° 253° (WSW) 691 4.5 -17.7°
Enters shadow 02:39:34 26° 182° (S) 1,187 5.6 -17.4°
